CW5193 New Chelsea NF CA current weather conditions

sailwx.info

Wind from 045 at 19 knots gusting 25

Air temperature 11.1° C
Dewpoint 8.3° C

Last reported at 2014-Aug-29 17:43 UTC.
Time now 2014-Aug-29 18:21 UTC

Location: N 48°02' W 053°13'.
View on Google Maps.

See reports from other nearby stations

  
Tides and Currents Weather Stations Pressure Air Temp Water Temp Dewpoint Dewpoint Depression Visibility Wind Speed Wind Dir Waves Ship Positions
date/time (UTC)wind fromknots sea level pressurealtimeterstation pressurevisibilityair tempwater tempwave heightnotes
2014-Aug-29 17:43 045 19 gusting 25 11.1
2014-Aug-29 17:32 042 20 gusting 26 11.1
2014-Aug-29 17:23 052 17 gusting 26 10.6
2014-Aug-29 17:13 053 19 gusting 28 10.6
2014-Aug-29 17:02 048 22 gusting 28 10.6
2014-Aug-29 16:52 045 19 gusting 26 10.6
2014-Aug-29 16:43 042 20 gusting 28 10.6
2014-Aug-29 16:32 059 20 gusting 26 10.6
2014-Aug-29 16:23 053 18 gusting 27 10.6
2014-Aug-29 16:12 069 18 gusting 26 11.1
2014-Aug-29 16:03 049 25 gusting 31 11.1
2014-Aug-29 15:53 057 21 gusting 32 11.1
2014-Aug-29 15:43 052 24 gusting 28 11.1
2014-Aug-29 15:33 056 22 gusting 30 11.1
2014-Aug-29 15:23 051 23 gusting 29 11.1
2014-Aug-29 15:12 057 24 gusting 29 10.6
2014-Aug-29 15:03 053 23 gusting 31 10.6
2014-Aug-29 14:53 051 20 gusting 28 10.6
2014-Aug-29 14:42 057 19 gusting 28 10.0
2014-Aug-29 14:33 052 18 gusting 29 10.6
2014-Aug-29 14:23 052 21 gusting 28 10.6
2014-Aug-29 14:12 053 22 gusting 31 10.6
2014-Aug-29 14:03 063 22 gusting 30 10.6
2014-Aug-29 13:53 065 25 gusting 28 10.6
2014-Aug-29 13:42 059 26 gusting 31 10.6
2014-Aug-29 13:32 059 22 gusting 33 10.6
2014-Aug-29 13:23 064 26 gusting 34 10.6
2014-Aug-29 13:12 053 25 gusting 33 10.6
2014-Aug-29 13:03 049 21 gusting 30 10.6
2014-Aug-29 12:53 059 26 gusting 31 10.6
2014-Aug-29 12:42 064 27 gusting 35 10.0
2014-Aug-29 12:32 063 26 gusting 33 10.0
2014-Aug-29 12:23 055 28 gusting 34 10.6
2014-Aug-29 12:13 060 28 gusting 34 10.6
2014-Aug-29 12:02 061 27 gusting 34 10.6
2014-Aug-29 11:52 063 25 gusting 35 10.6
2014-Aug-29 11:43 067 26 gusting 33 10.6
2014-Aug-29 11:33 060 26 gusting 34 10.6
2014-Aug-29 11:22 066 27 gusting 34 10.6
2014-Aug-29 11:13 067 25 gusting 34 10.6
2014-Aug-29 11:02 055 26 gusting 33 10.6
2014-Aug-29 10:53 057 30 gusting 34 10.6
2014-Aug-29 10:43 057 31 gusting 33 10.6
2014-Aug-29 10:32 058 28 gusting 34 10.6
2014-Aug-29 10:23 063 26 gusting 34 10.6
2014-Aug-29 10:13 053 31 gusting 34 10.6
2014-Aug-29 10:02 069 31 gusting 35 10.6
2014-Aug-29 09:52 060 31 gusting 36 10.6
2014-Aug-29 09:43 056 31 gusting 34 10.6
2014-Aug-29 09:32 063 29 gusting 33 10.6
2014-Aug-29 09:13 069 26 gusting 30 11.1
2014-Aug-29 09:02 065 25 gusting 33 11.1
2014-Aug-29 08:53 062 26 gusting 34 11.1
2014-Aug-29 08:42 067 28 gusting 33 11.7
2014-Aug-29 08:33 071 26 gusting 33 11.7
2014-Aug-29 08:23 058 26 gusting 31 11.7
2014-Aug-29 08:13 055 24 gusting 32 11.7
2014-Aug-29 08:02 071 25 gusting 29 11.7
2014-Aug-29 07:53 067 23 gusting 30 12.2
2014-Aug-29 07:43 069 23 gusting 28 12.2
2014-Aug-29 07:32 067 19 gusting 28 12.2
2014-Aug-29 07:23 078 22 gusting 28 12.2
2014-Aug-29 07:13 065 20 gusting 26 12.2
2014-Aug-29 07:02 066 19 gusting 26 12.2
2014-Aug-29 06:52 065 21 gusting 26 12.2
2014-Aug-29 06:43 070 19 gusting 26 12.2
2014-Aug-29 06:32 072 19 gusting 26 12.2
2014-Aug-29 06:23 074 19 gusting 26 12.2
2014-Aug-29 06:13 074 18 gusting 25 12.2
2014-Aug-29 06:03 070 20 gusting 26 12.2
2014-Aug-29 05:52 070 17 gusting 24 12.8
2014-Aug-29 05:43 082 18 gusting 25 12.8
2014-Aug-29 05:33 071 19 gusting 27 12.8
2014-Aug-29 05:22 084 20 gusting 26 12.8
2014-Aug-29 05:13 074 19 gusting 24 12.8
2014-Aug-29 05:03 084 18 gusting 21 12.8
2014-Aug-29 04:53 071 18 gusting 25 12.8
2014-Aug-29 04:43 078 18 gusting 25 12.8
2014-Aug-29 04:32 074 18 gusting 27 12.2
2014-Aug-29 04:23 078 19 gusting 26 12.2
2014-Aug-29 04:12 072 19 gusting 26 12.2
2014-Aug-29 04:03 082 19 gusting 24 12.2
2014-Aug-29 03:53 064 18 gusting 22 12.2
2014-Aug-29 03:42 082 20 gusting 23 12.2
2014-Aug-29 03:33 083 19 gusting 25 12.2
2014-Aug-29 03:22 079 17 gusting 25 12.2
2014-Aug-29 03:13 074 16 gusting 25 12.2
2014-Aug-29 03:03 073 20 gusting 25 12.2
2014-Aug-29 02:53 071 20 gusting 28 12.2
2014-Aug-29 02:43 070 22 gusting 26 12.2
2014-Aug-29 02:33 069 21 gusting 25 12.2
2014-Aug-29 02:22 069 19 gusting 25 12.2
2014-Aug-29 02:13 071 20 gusting 24 12.2
2014-Aug-29 02:02 065 18 gusting 24 12.2
2014-Aug-29 01:53 059 19 gusting 23 12.2
2014-Aug-29 01:42 076 19 gusting 25 12.2
2014-Aug-29 01:33 079 21 gusting 24 12.2
2014-Aug-29 01:23 081 17 gusting 24 12.2
2014-Aug-29 01:13 076 18 gusting 22 12.2
2014-Aug-29 01:03 061 19 gusting 22 12.2
2014-Aug-29 00:53 075 16 gusting 25 12.2
2014-Aug-29 00:43 073 19 gusting 24 12.2
2014-Aug-29 00:33 068 19 gusting 24 12.2
2014-Aug-29 00:23 074 19 gusting 23 12.2
2014-Aug-29 00:12 084 18 gusting 24 12.2
2014-Aug-29 00:03 068 16 gusting 19 12.2
2014-Aug-28 23:53 079 13 gusting 20 12.2
2014-Aug-28 23:43 087 14 gusting 22 12.2
2014-Aug-28 23:32 065 13 gusting 21 12.2
2014-Aug-28 23:23 067 15 gusting 21 12.2
2014-Aug-28 23:13 074 16 gusting 19 12.2
2014-Aug-28 23:02 074 13 gusting 19 12.2
2014-Aug-28 22:52 075 14 gusting 19 12.2
2014-Aug-28 22:43 076 14 gusting 21 12.2
2014-Aug-28 22:32 078 13 gusting 16 12.2
2014-Aug-28 22:23 094 12 gusting 16 12.2
2014-Aug-28 22:13 089 11 gusting 14 12.2
2014-Aug-28 22:03 084 11 gusting 14 12.2
2014-Aug-28 21:52 078 11 gusting 14 12.2
2014-Aug-28 21:43 078 11 gusting 16 12.2
2014-Aug-28 21:32 067 12 gusting 18 12.2
2014-Aug-28 21:23 086 13 gusting 18 12.2
2014-Aug-28 21:13 084 14 gusting 17 12.2
2014-Aug-28 21:03 080 14 gusting 19 12.2
2014-Aug-28 20:53 074 10 gusting 15 12.2
2014-Aug-28 20:42 084 12 gusting 16 12.2
2014-Aug-28 20:33 084 12 gusting 15 12.2
2014-Aug-28 20:23 090 10 gusting 14 12.2
2014-Aug-28 20:12 076 12 gusting 15 12.2
2014-Aug-28 20:03 075 12 gusting 15 12.2
2014-Aug-28 19:53 083 13 gusting 19 12.2
2014-Aug-28 19:43 083 11 gusting 13 12.2
2014-Aug-28 19:32 082 13 gusting 17 12.2
2014-Aug-28 19:23 079 13 gusting 17 12.2
2014-Aug-28 19:12 084 13 gusting 16 12.2
2014-Aug-28 19:03 075 14 gusting 16 12.2
2014-Aug-28 18:53 078 10 gusting 16 12.2
2014-Aug-28 18:42 080 11 gusting 16 12.2
2014-Aug-28 18:33 088 11 gusting 16 12.8
2014-Aug-28 18:23 087 10 gusting 15 12.8
2014-Aug-28 18:13 082 10 gusting 16 12.8
2014-Aug-28 18:03 091 13 gusting 14 12.8
2014-Aug-28 17:53 084 13 gusting 17 12.8
2014-Aug-28 17:42 077 13 gusting 17 12.8
2014-Aug-28 17:22 101 12 gusting 19 12.2
2014-Aug-28 17:13 082 14 gusting 18 12.2
2014-Aug-28 17:02 074 13 gusting 16 12.8
2014-Aug-28 16:53 071 12 gusting 15 12.8
2014-Aug-28 16:42 087 10 gusting 15 12.8
2014-Aug-28 16:33 090 11 gusting 17 12.8
2014-Aug-28 16:22 083 13 gusting 15 12.8
2014-Aug-28 16:13 090 10 gusting 16 12.8
2014-Aug-28 16:02 074 12 gusting 14 12.8
2014-Aug-28 15:53 092 10 gusting 14 12.8
2014-Aug-28 15:42 074 11 gusting 14 12.8
2014-Aug-28 15:32 091 10 gusting 13 12.8
2014-Aug-28 15:23 075 10 gusting 14 12.8
2014-Aug-28 15:13 081 7 gusting 13 12.8
2014-Aug-28 15:03 083 8 gusting 16 12.8
2014-Aug-28 14:53 075 12 gusting 14 12.8
2014-Aug-28 14:43 089 9 gusting 15 12.8
2014-Aug-28 14:32 072 8 gusting 15 12.8
2014-Aug-28 14:23 074 9 gusting 14 12.8
2014-Aug-28 14:13 084 11 gusting 15 12.8
2014-Aug-28 14:02 086 9 gusting 12 12.8
2014-Aug-28 13:52 074 6 gusting 14 12.8
2014-Aug-28 13:43 063 8 gusting 12 12.8
2014-Aug-28 13:32 072 9 gusting 15 12.8
2014-Aug-28 13:23 085 12 gusting 16 12.8
2014-Aug-28 13:13 061 11 gusting 15 12.8
2014-Aug-28 13:02 072 13 gusting 16 12.8
2014-Aug-28 12:52 086 12 gusting 16 12.8
2014-Aug-28 12:42 069 12 gusting 15 12.8
2014-Aug-28 12:33 072 13 gusting 16 12.8
2014-Aug-28 12:23 071 13 gusting 15 12.8
2014-Aug-28 12:13 068 8 gusting 15 12.8
2014-Aug-28 12:02 084 10 gusting 15 12.8
2014-Aug-28 11:52 071 13 gusting 16 12.8
2014-Aug-28 11:43 069 13 gusting 16 12.8
2014-Aug-28 11:33 071 11 gusting 14 12.8
2014-Aug-28 11:22 063 12 gusting 16 12.8
2014-Aug-28 11:13 074 11 gusting 14 12.8
2014-Aug-28 11:02 067 11 gusting 16 12.8
2014-Aug-28 10:53 080 14 gusting 18 12.8
2014-Aug-28 10:42 074 13 gusting 17 12.8
2014-Aug-28 10:32 067 14 gusting 17 12.8
2014-Aug-28 10:23 068 12 gusting 14 12.8
2014-Aug-28 10:13 080 13 gusting 15 12.8
2014-Aug-28 10:03 070 11 gusting 14 12.8
2014-Aug-28 09:53 068 11 gusting 13 12.8
2014-Aug-28 09:43 076 12 gusting 16 12.8
2014-Aug-28 09:33 069 15 gusting 17 12.8
2014-Aug-28 09:22 063 15 gusting 17 12.8
2014-Aug-28 09:13 065 13 gusting 16 12.8
2014-Aug-28 09:02 077 13 gusting 17 12.8
2014-Aug-28 08:53 071 14 gusting 17 12.8
2014-Aug-28 08:42 063 14 gusting 17 12.8
2014-Aug-28 08:33 068 14 gusting 17 12.8
2014-Aug-28 08:22 061 13 gusting 17 12.8
2014-Aug-28 08:13 052 15 gusting 19 12.8
2014-Aug-28 08:02 069 14 gusting 18 12.8
2014-Aug-28 07:53 059 16 gusting 18 12.8
2014-Aug-28 07:42 056 13 gusting 16 12.8
2014-Aug-28 07:33 074 13 gusting 17 12.8
2014-Aug-28 07:22 070 15 gusting 18 12.8
2014-Aug-28 07:13 066 13 gusting 17 12.8
2014-Aug-28 07:03 071 13 gusting 17 12.8
2014-Aug-28 06:53 060 14 gusting 17 12.8
2014-Aug-28 06:43 063 13 gusting 15 12.8
2014-Aug-28 06:32 059 12 gusting 16 12.8
2014-Aug-28 06:23 046 12 gusting 18 12.8
2014-Aug-28 06:13 059 13 gusting 15 12.8
2014-Aug-28 06:03 062 13 gusting 14 12.8
2014-Aug-28 05:53 053 12 gusting 15 12.8
2014-Aug-28 04:43 056 11 gusting 16 13.3
2014-Aug-28 04:32 055 13 gusting 19 13.9
2014-Aug-28 04:22 055 14 gusting 16 13.9
2014-Aug-28 04:13 058 10 gusting 16 13.9
2014-Aug-28 04:03 038 12 gusting 15 14.4
2014-Aug-28 03:53 332 7 gusting 13 18.3
2014-Aug-28 03:42 228 6 gusting 11 18.3
2014-Aug-28 03:33 240 3 gusting 13 18.3
2014-Aug-28 03:23 257 6 gusting 10 18.3
2014-Aug-28 03:13 242 4 gusting 10 18.3
2014-Aug-28 03:02 242 7 gusting 12 18.3
2014-Aug-28 02:52 222 6 gusting 13 18.3
2014-Aug-28 02:43 259 7 gusting 16 18.3
2014-Aug-28 02:32 225 7 gusting 17 18.3
2014-Aug-28 02:23 223 6 gusting 16 18.3
2014-Aug-28 02:13 208 9 gusting 16 18.3
2014-Aug-28 02:02 238 11 gusting 18 18.9
2014-Aug-28 01:53 207 7 gusting 18 18.9
2014-Aug-28 01:42 233 11 gusting 16 18.9
2014-Aug-28 01:33 247 7 gusting 16 18.9
2014-Aug-28 01:22 230 13 gusting 17 18.9
2014-Aug-28 01:12 275 11 gusting 17 18.9
2014-Aug-28 01:02 200 8 gusting 17 18.9
2014-Aug-28 00:52 247 8 gusting 17 18.3
2014-Aug-28 00:43 252 10 gusting 19 18.9
2014-Aug-28 00:33 249 9 gusting 20 18.9
2014-Aug-28 00:23 279 10 gusting 19 18.9
2014-Aug-28 00:12 227 9 gusting 19 18.9
2014-Aug-28 00:03 236 9 gusting 22 18.9
2014-Aug-27 23:52 217 13 gusting 26 18.9
2014-Aug-27 23:43 228 13 gusting 24 18.9
2014-Aug-27 22:33 243 15 gusting 22 18.3
2014-Aug-27 22:22 226 15 gusting 26 18.9
2014-Aug-27 22:12 244 16 gusting 25 18.9
2014-Aug-27 22:03 234 12 gusting 22 18.9
2014-Aug-27 21:53 225 14 gusting 23 18.9
2014-Aug-27 21:42 267 14 gusting 22 18.9
2014-Aug-27 21:33 223 11 gusting 25 18.9
2014-Aug-27 21:22 236 14 gusting 26 18.9
2014-Aug-27 21:13 221 13 gusting 26 19.4
2014-Aug-27 21:03 273 14 gusting 26 19.4
2014-Aug-27 20:53 232 19 gusting 28 19.4
2014-Aug-27 20:42 249 15 gusting 25 18.9
2014-Aug-27 20:33 219 15 gusting 26 18.9
2014-Aug-27 20:23 206 16 gusting 28 19.4
2014-Aug-27 20:12 207 14 gusting 25 19.4
2014-Aug-27 20:03 186 10 gusting 25 19.4
2014-Aug-27 19:52 241 13 gusting 23 19.4
2014-Aug-27 19:43 241 13 gusting 24 18.9
2014-Aug-27 19:33 235 15 gusting 26 18.9
2014-Aug-27 19:22 200 16 gusting 24 19.4
2014-Aug-27 19:13 220 16 gusting 28 18.9
2014-Aug-27 19:03 245 13 gusting 26 19.4
2014-Aug-27 18:53 246 13 gusting 26 19.4
2014-Aug-27 18:43 282 15 gusting 28 19.4
2014-Aug-27 18:33 222 16 gusting 28 19.4
2014-Aug-27 18:23 252 13 gusting 32 20.0
2014-Aug-27 18:12 232 18 gusting 25 20.0
2014-Aug-27 18:03 204 17 gusting 26 20.0